Regional Weather Roundup
Issued by NWS

Home | Current Version | Previous Version | Graphics & Text | Print | Product List | Glossary On
Versions: 1 2 3 4 5 6 7 8 9 10 11 12 13 14 15 16 17 18 19 20 21 22 23 24 25 26 27 28 29 30 31 32 33 34 35 36 37 38 39 40 41 42 43
000
ASUS45 KBOU 211510
RWRCO

WEATHER ROUNDUP FOR COLORADO
NATIONAL WEATHER SERVICE PUEBLO CO
800 AM MST WED FEB 21 2018

NOTE: "FAIR" INDICATES FEW OR NO CLOUDS BELOW 12000 FEET WITH NO
SIGNIFICANT WEATHER AND/OR OBSTRUCTIONS TO VISIBILITY.

COZ001>005-013-030-031-211600-
...NORTHWEST COLORADO...

CITY           SKY/WX    TMP DP  RH WIND       PRES   REMARKS
CRAIG          SUNNY    -11 -17  75 SW6       30.15R WCI -25
HAYDEN         SUNNY     -3 -10  72 SE14      30.13R WCI -22
MEEKER         SUNNY     -5 -10  79 CALM      30.12R
RABBIT EARS PA NOT AVBL
STEAMBOAT SPGS   N/A     -8 -12  84 CALM      30.11S
WALDEN         FAIR       0  -8  71 SE6       30.04S WCI -12
$$

COZ006>008-011-211600-
...WEST CENTRAL VALLEYS...

CITY           SKY/WX    TMP DP  RH WIND       PRES   REMARKS
GRAND JUNCTION SUNNY     20  10  65 SE16      30.17R WCI   6
MONTROSE       SUNNY      8   3  80 S5        30.20R WCI   0
EAGLE          SUNNY      3  -3  76 CALM      30.20R
RIFLE          SUNNY      6   2  83 SE3       30.18R
DELTA          NOT AVBL
NUCLA          FAIR      14   3  62 SE3       30.18R
$$

COZ017>023-064>068-211600-
...SOUTHWEST COLORADO...

CITY           SKY/WX    TMP DP  RH WIND       PRES   REMARKS
DURANGO        CLOUDY    14   7  73 CALM      30.13R
CORTEZ         PTSUNNY   15   8  73 E3        30.12R
PAGOSA SPRINGS FAIR       6   3  86 CALM      30.12R
TELLURIDE      SUNNY     14  -4  44 CALM      30.04R
WOLF CREEK PAS   N/A      1   0  92 S17G23    29.99S WCI -19
$$

COZ009-010-012-014-032>034-037-058>063-211600-
...CENTRAL COLORADO...

CITY           SKY/WX    TMP DP  RH WIND       PRES   REMARKS
ASPEN          SUNNY      0  -5  79 CALM      30.05S
BUENA VISTA    FAIR       4  -8  57 NW6       30.10S WCI  -7
COPPER MTN     SUNNY      5 -18  33 S17G23    29.89R WCI -14
BERTHOUD PASS  FAIR      -6 -17  59 W18G33    29.86R WCI -29
COTTONWOOD PAS SUNNY     14  -6  41 SE5       30.00S WCI   6
GUNNISON       SUNNY     -4  -9  79 CALM      30.17R
KREMMLING      MOSUNNY    3  -4  72 CALM      30.15R
LEADVILLE      SUNNY     -7 -13  75 N3        29.98R
MONARCH PASS   SUNNY     -2  -8  78 SW20      30.02R WCI -25
SALIDA         FAIR       8  -3  60 N13       30.17S WCI  -8
SUNLIGHT       SUNNY      0  -6  78 SW7G16    30.00R WCI -13
WILKERSON PASS SUNNY      0  -6  78 SW15G21   29.95R WCI -20
$$

COZ069>075-211600-
...SAN LUIS VALLEY/SANGRE DE CRISTO MOUNTAINS...

CITY           SKY/WX    TMP DP  RH WIND       PRES   REMARKS
ALAMOSA        SUNNY      6  -1  73 W5        30.13R WCI  -3
DEL NORTE      FAIR       5  -6  60 W15       30.12S WCI -13
LA VETA PASS   LGT SNOW  12   9  85 S20G33    30.12R WCI  -6
SAGUACHE       SUNNY      5  -4  66 NW15      30.13R WCI -13
$$

COZ035-036-038>040-211600-
...NORTHERN COLORADO FRONT RANGE...

CITY           SKY/WX    TMP DP  RH WIND       PRES   REMARKS
DENVER INTL AP MOSUNNY    6   2  83 VRB3      30.20R
DMNS CITY PARK NOT AVBL
AURORA         MOSUNNY    3   0  87 S5        30.18S WCI  -7
FRONT RANGE AP MOSUNNY    7   1  78 SE5       30.20R WCI  -2
ERIE MUNI ARPT FAIR      -4  -7  84 CALM      30.28S
BOULDER MUN AP LGT SNOW   3   1  92 CALM      30.20S VSB 3/4
CENTENNIAL     MOSUNNY    6   3  87 S3        30.16R
BROOMFIELD     MOSUNNY    3   1  92 SW5       30.18R WCI  -6
LOVELAND       LGT SNOW   0  -4  85 CALM      30.23F FOG
LONGMONT       FAIR       1  -4  80 W3        30.24F
$$

COZ041-046-047-076>085-087-088-211600-
...PIKES PEAK/PALMER DIVIDE AND SOUTHERN FOOTHILLS...

CITY           SKY/WX    TMP DP  RH WIND       PRES   REMARKS
COLO. SPRINGS  SUNNY      8   3  80 E5        30.20R WCI   0
A. F. ACADEMY  SUNNY     -3  -8  79 N5        30.16R WCI -13
SCHRIEVER AFB  NOT AVBL
CHEYENNE MTN   NOT AVBL
ELLICOTT         N/A    N/A N/A N/A CALM        N/A
FALCON         FAIR      11   8  87 SW3       30.16S
FORT CARSON    SUNNY      8   2  76 NW7       30.21R WCI  -3
LIMON          SUNNY      8   4  83 CALM      30.25R
MONUMENT HILL  SUNNY      9   3  78 S12       30.12F WCI  -6
CANON CITY     SUNNY     12   7  79 W6        30.24R WCI   3
WALSENBURG     FAIR      16  10  79 CALM      30.21S
TRINIDAD       SUNNY     12   6  77 NW5       30.22R WCI   4
$$

COZ042>045-048>051-090-091-211600-
...NORTHEAST COLORADO...

CITY           SKY/WX    TMP DP  RH WIND       PRES   REMARKS
GREELEY ARPT   SUNNY    -11 -16  78 NE3       30.28
AKRON          SUNNY     14   2  58 S9        30.28R WCI   2
BURLINGTON     SUNNY     11   2  67 S6        30.35R WCI   1
WRAY           FAIR      12   5  73 CALM      30.37R
YUMA           NOT AVBL
STERLING       FAIR       1  -4  78 S5        30.32R WCI  -8
HOLYOKE        FAIR       9   1  72 W6        30.35R WCI  -1
FORT MORGAN    FAIR       1  -5  76 SW5       30.29R WCI  -9
$$

COZ086-089-092>099-211600-
...SOUTHEAST COLORADO...

CITY           SKY/WX    TMP DP  RH WIND       PRES   REMARKS
PUEBLO         SUNNY     13   7  77 CALM      30.30R
LA JUNTA       SUNNY     13   7  77 CALM      30.35R
LAMAR          SUNNY      9   3  77 SW3       30.39R
SPRINGFIELD      N/A     12  -1  56 E7        30.34R WCI   1
$$





USA.gov is the U.S. government's official web portal to all federal, state and local government web resources and services.